Temp
54 54 54 54 54 54 54 54 54 54 54 54 54 55 55 55 55 49 51 51 47 42 45 49 50 45 48 47 42 47 46 47 50 48 50 56 55 61 60 65 60 59 58 58 61 58 57 74 73 73 78 75 76 78
53 54 54 54 54 54 54 53 53 53 53 54 54 54 52 55 54 52 46 54 51 42 44 53 53 54 52 52 47 49 47 45 47 45 51 52 52 56 56 56 65 61 70 66 67 68 69 72 71 73 71 73 73 74
53 53 53 53 53 53 53 54 53 53 53 54 54 54 54 52 52 52 49 52 49 43 46 47 47 54 57 56 58 43 49 51 49 49 44 50 45 56 54 59 63 65 66 68 66 67 68 68 70 71 72 73 74 75
53 53 53 53 53 53 53 53 53 53 53 54 54 53 53 52 53 52 49 52 48 44 36 44 59 52 59 58 55 55 53 53 49 45 40 45 48 57 56 58 57 67 63 64 67 63 67 68 70 71 72 73 74 75
52 52 53 53 53 53 53 53 53 53 53 53 54 52 52 53 53 52 52 52 54 44 36 41 52 56 58 56 54 54 51 49 44 38 39 43 52 52 58 57 58 65 64 65 68 67 71 68 70 73 71 71 73 73
52 52 53 53 53 53 54 53 52 53 53 53 53 53 53 53 52 51 45 49 53 52 39 35 52 50 55 55 52 52 51 48 45 41 40 48 52 50 47 52 62 63 63 65 64 71 71 70 72 75 72 73 75 73
52 52 53 53 53 53 53 53 53 53 53 52 52 52 52 52 51 46 45 49 49 48 38 36 38 50 54 53 53 53 51 48 45 42 45 47 48 50 49 50 61 63 63 64 67 70 66 70 69 74 74 73 72 74
52 53 53 53 53 53 53 53 53 53 53 52 52 52 52 52 50 47 55 52 51 44 42 36 38 43 55 48 45 52 45 45 45 46 48 49 49 49 48 58 60 62 65 67 70 73 69 69 71 71 73 74 72 71
53 53 53 53 53 53 53 53 53 53 53 52 52 51 51 49 44 49 53 54 54 45 37 38 34 38 52 51 50 48 48 41 49 43 45 48 46 44 52 51 58 60 64 64 68 70 70 68 67 69 71 72 71 70
53 53 53 53 53 53 53 53 54 53 52 52 50 45 42 46 54 52 47 42 41 41 40 35 39 37 48 51 49 45 46 42 39 44 48 44 45 54 54 56 59 61 63 66 63 61 63 64 66 69 70 72 72 70
53 53 53 53 53 53 53 53 53 52 51 47 44 42 48 53 48 45 41 39 43 38 42 41 41 40 50 43 43 46 41 44 37 40 42 43 43 49 54 57 58 59 63 64 64 68 69 68 67 67 67 68 69 69
52 52 52 53 53 53 53 53 53 50 47 47 46 48 47 45 43 39 37 39 38 37 43 42 45 46 47 49 46 45 41 44 35 46 43 38 46 51 53 55 57 59 61 63 64 64 65 66 68 67 66 65 66 66
52 52 52 52 52 53 53 52 52 52 51 49 45 42 39 39 33 32 32 34 36 42 45 46 44 47 47 48 46 43 42 40 47 42 40 45 49 52 55 59 59 62 63 62 63 64 64 64 65 65 63 64 65 65
52 52 52 52 53 53 53 52 52 52 51 45 42 35 38 38 36 36 38 40 44 45 46 46 46 46 47 45 47 42 44 46 41 39 40 46 48 52 59 61 61 61 62 61 61 62 61 61 60 61 61 62 63 62
52 52 52 53 53 52 52 52 52 55 52 46 46 36 41 46 44 45 46 46 50 49 46 46 46 46 46 46 48 48 45 40 40 40 44 47 50 52 55 58 60 60 60 59 61 61 61 60 60 58 58 60 60 61
52 51 54 53 52 52 52 53 55 56 54 50 46 42 45 43 45 48 48 47 52 47 48 47 49 48 46 48 45 41 40 35 40 44 47 48 50 53 54 57 59 60 59 58 59 59 61 60 58 58 59 59 59 60
51 52 53 52 51 51 51 56 57 52 49 46 43 44 43 42 43 47 48 48 52 51 47 51 45 43 51 45 41 42 38 42 44 47 49 50 51 52 56 58 58 59 59 59 60 59 59 60 61 60 58 58 60 60
51 54 52 51 52 52 56 54 53 50 44 44 40 45 47 47 46 51 50 51 48 49 51 48 52 45 42 40 40 44 46 48 49 50 53 54 55 56 57 58 59 60 59 60 60 60 60 61 61 60 59 60 62 62
52 52 52 52 53 51 51 51 50 43 44 45 46 49 50 50 52 52 52 54 52 53 54 49 44 42 42 45 45 47 48 49 50 52 53 54 54 55 56 57 59 60 60 60 61 63 63 61 61 63 64 64 63 63
51 52 52 53 54 51 49 49 52 45 43 45 46 48 47 49 50 52 53 51 52 52 47 44 44 45 46 47 49 50 50 51 52 53 55 55 54 56 56 58 57 59 60 61 63 54 66 66 66 66 66 65 66 65
52 53 53 54 53 52 49 48 49 47 44 45 49 47 49 51 51 51 52 54 52 48 47 48 49 50 51 51 51 52 51 52 51 50 49 53 56 56 57 58 60 61 60 62 64 64 60 66 67 68 67 68 68 67
52 52 52 52 51 50 47 47 47 47 47 49 50 50 50 50 49 52 51 52 49 49 51 52 53 53 54 53 52 54 54 56 57 57 51 54 54 57 58 58 58 58 59 61 64 66 67 67 68 68 68 68 60 68
52 51 51 50 50 45 44 48 49 48 50 51 52 52 51 52 53 56 52 52 52 54 52 52 53 55 55 55 56 57 57 57 59 58 59 61 60 59 61 60 62 61 62 65 67 66 66 54 62 66 68 67 68 69
51 48 46 46 48 45 51 51 50 51 52 51 51 51 52 52 54 52 49 51 52 57 56 54 58 58 57 58 58 58 59 62 63 62 61 59 55 57 60 61 63 64 63 65 66 65 64 62 56 67 69 68 60 61
43 46 46 40 51 51 51 51 52 53 51 51 52 52 52 54 51 51 49 49 50 56 59 61 61 60 60 61 61 61 60 63 63 60 60 64 64 63 61 64 63 63 65 66 65 65 65 66 67 67 68 67 67 64
42 52 45 53 52 51 51 50 51 51 52 52 52 53 54 54 50 46 49 50 54 56 56 57 58 57 58 58 58 59 60 63 63 60 60 63 63 63 60 59 60 61 64 65 63 63 64 65 65 65 66 65 53 64
46 53 56 56 54 54 54 55 55 53 49 47 50 51 52 46 45 49 51 55 55 52 54 60 60 59 58 59 61 62 63 64 61 60 62 62 62 61 61 58 56 58 62 64 64 64 63 63 64 64 64 65 66 65
54 54 51 55 54 54 50 50 48 45 47 49 51 47 47 48 44 47 49 52 52 57 61 62 60 60 59 59 60 60 61 64 65 65 65 64 63 61 60 60 58 45 57 58 58 61 61 62 61 61 61 61 61 62
55 56 56 53 53 53 50 49 50 51 51 49 46 45 46 47 48 48 49 50 53 58 58 59 58 62 61 61 60 59 59 58 57 54 53 54 56 56 58 59 59 59 60 60 47 49 53 56 57 58 59 60 60 61
55 57 55 53 51 50 52 54 50 51 50 49 49 48 47 46 47 49 52 54 55 56 58 58 58 57 55 55 56 57 58 57 56 54 52 51 52 56 56 56 56 57 57 57 57 57 48 55 53 58 56 57 57 57
56 58 54 54 52 53 55 56 54 54 51 49 49 46 45 47 49 51 53 55 57 58 56 56 57 55 53 52 51 52 52 56 56 55 54 56 56 55 55 55 56 56 56 55 54 53 52 53 53 52 52 51 51 51
57 55 54 52 52 54 55 54 54 52 51 51 49 51 50 49 47 51 55 56 57 55 49 53 53 52 54 54 54 54 42 53 53 53 53 54 54 54 55 55 56 55 54 53 52 51 50 49 49 49 49 49 49 49
56 56 55 54 52 52 53 54 53 52 52 51 51 52 53 52 49 51 57 57 54 54 53 54 55 54 53 53 52 52 48 53 45 37 38 37 36 42 52 54 53 52 51 51 50 50 48 47 47 47 47 47 47 47
MSLP
1022.47 1021.89 1021.29 1020.70 1020.09 1019.43 1018.77 1018.22 1017.71 1017.25 1016.87 1016.60 1016.39 1016.23 1016.17 1016.21 1016.36 1016.99 1016.53 1016.69 1016.65 1016.07 1015.29 1014.92 1014.59 1014.46 1013.89 1013.56 1012.97 1012.53 1012.03 1011.00 1009.57 1008.23 1006.43 1003.93 1002.43 1000.67 999.95 998.50 998.27 998.39 998.75 998.85 998.95 997.57 996.33 996.21 996.57 996.09 995.37 995.14 995.21 995.36
1022.22 1021.55 1020.94 1020.29 1019.65 1018.95 1018.31 1017.67 1017.05 1016.57 1016.03 1015.65 1015.37 1015.27 1015.37 1015.45 1015.73 1016.09 1016.32 1016.11 1016.25 1016.31 1014.85 1014.05 1014.15 1013.94 1013.63 1013.23 1013.62 1013.08 1012.23 1011.81 1011.17 1009.94 1008.02 1006.02 1003.67 1001.90 1000.35 998.43 998.04 997.36 996.14 996.23 996.64 995.80 996.25 996.19 996.27 996.12 996.19 996.21 996.07 996.12
1021.89 1021.27 1020.60 1019.96 1019.29 1018.59 1017.90 1017.12 1016.23 1015.90 1015.49 1015.08 1014.67 1014.46 1014.31 1014.45 1015.15 1015.42 1015.66 1015.77 1015.95 1015.47 1013.91 1013.17 1012.38 1012.02 1012.33 1012.35 1012.81 1012.79 1012.25 1012.16 1011.70 1011.57 1010.41 1007.77 1005.33 1003.17 1000.69 999.10 997.68 997.14 996.63 996.01 996.41 996.23 996.51 996.93 996.79 996.73 996.51 996.65 996.76 996.92
1021.55 1020.87 1020.17 1019.53 1018.91 1018.22 1017.46 1016.63 1015.89 1015.31 1015.13 1014.80 1014.35 1014.26 1014.11 1014.31 1014.60 1014.98 1015.20 1015.28 1015.53 1015.01 1013.93 1011.62 1011.03 1010.85 1010.46 1010.85 1011.36 1011.81 1012.00 1011.89 1012.19 1012.18 1011.44 1008.89 1006.33 1004.21 1001.70 1000.39 999.22 997.43 997.16 996.09 995.75 996.57 996.86 997.26 997.07 997.14 997.27 997.24 997.32 997.72
1020.97 1020.30 1019.74 1019.23 1018.64 1017.91 1017.11 1016.41 1015.63 1015.05 1014.88 1014.69 1014.33 1014.25 1014.23 1014.30 1014.45 1014.63 1014.73 1014.64 1014.56 1014.85 1013.60 1011.68 1010.59 1008.69 1008.85 1009.15 1009.85 1010.66 1011.30 1011.89 1012.41 1012.80 1011.63 1008.75 1006.63 1005.19 1002.69 1001.30 998.83 997.53 996.69 996.09 995.49 995.71 995.63 996.72 997.41 997.69 997.50 997.34 997.48 998.23
1020.54 1019.94 1019.43 1018.82 1018.02 1017.30 1016.74 1016.22 1015.62 1015.06 1014.79 1014.65 1014.48 1014.27 1014.16 1014.15 1014.27 1014.43 1014.01 1013.90 1013.83 1014.06 1013.92 1012.25 1009.64 1008.33 1007.91 1007.97 1008.86 1009.61 1010.43 1011.58 1012.13 1011.73 1010.83 1008.39 1006.93 1006.04 1003.72 1000.83 998.33 997.93 997.53 997.16 996.43 996.28 996.11 996.79 997.67 997.95 998.02 997.95 997.45 998.63
1020.03 1019.49 1018.94 1018.14 1017.60 1017.12 1016.67 1016.07 1015.55 1015.15 1014.75 1014.53 1014.39 1014.28 1014.14 1014.08 1014.19 1013.91 1013.57 1013.55 1013.61 1013.93 1013.72 1012.07 1009.98 1008.01 1007.40 1007.64 1008.51 1009.17 1010.11 1010.54 1010.95 1010.86 1009.29 1007.82 1006.66 1005.95 1003.78 1000.89 998.79 998.12 997.47 997.22 997.44 996.69 997.34 997.87 998.02 998.58 998.42 998.82 999.21 999.85
1019.55 1019.02 1018.41 1017.75 1017.13 1016.75 1016.31 1015.67 1015.17 1014.84 1014.58 1014.29 1014.08 1013.93 1013.78 1013.70 1013.82 1013.32 1012.31 1012.78 1013.30 1013.47 1013.21 1011.83 1009.75 1007.96 1007.41 1007.22 1007.73 1008.46 1009.12 1009.78 1009.40 1008.63 1007.88 1006.59 1005.96 1005.27 1002.94 1000.57 999.59 998.59 997.62 997.67 997.51 997.10 997.68 997.80 999.04 999.37 999.50 999.89 1000.25 1001.11
1019.14 1018.48 1017.98 1017.21 1016.59 1016.28 1015.83 1015.15 1014.73 1014.25 1013.87 1013.61 1013.45 1013.50 1013.67 1013.61 1013.18 1012.44 1012.25 1012.01 1012.66 1013.31 1012.33 1011.00 1009.58 1007.70 1007.12 1006.72 1007.05 1007.73 1007.89 1008.25 1007.83 1007.66 1006.83 1006.35 1005.11 1003.79 1002.07 1001.15 1000.02 999.40 998.36 998.48 997.97 998.04 998.86 998.67 999.53 1000.17 1000.33 1000.77 1001.14 1002.04
1018.78 1018.11 1017.49 1016.86 1016.11 1015.60 1015.10 1014.53 1014.09 1013.53 1013.18 1013.00 1013.05 1013.21 1012.77 1012.40 1011.89 1012.03 1012.26 1012.21 1012.46 1012.03 1011.59 1010.39 1009.57 1008.17 1006.89 1006.17 1006.29 1006.89 1007.14 1007.04 1006.65 1006.39 1006.10 1005.28 1003.92 1002.80 1002.03 1000.96 1000.39 999.98 999.51 998.95 998.40 999.57 999.97 1000.31 1000.92 1001.33 1001.68 1002.03 1002.31 1002.83
1018.36 1017.70 1017.17 1016.50 1015.79 1015.11 1014.43 1013.90 1013.42 1012.98 1012.78 1012.78 1012.66 1012.59 1011.98 1011.75 1011.72 1011.51 1011.38 1011.37 1010.83 1010.35 1009.55 1008.69 1007.99 1007.33 1006.59 1006.05 1005.95 1006.47 1006.35 1005.68 1005.63 1005.56 1005.07 1003.83 1002.91 1002.21 1001.44 1000.98 1000.70 1000.23 1000.01 999.94 1000.05 1000.41 1000.96 1001.40 1001.98 1002.40 1002.93 1003.40 1003.50 1004.04
1017.95 1017.28 1016.63 1015.89 1015.28 1014.65 1014.00 1013.38 1012.96 1012.79 1012.36 1012.48 1012.56 1012.47 1012.19 1011.75 1011.31 1011.21 1010.53 1010.33 1009.83 1008.76 1007.59 1007.06 1006.98 1006.51 1005.98 1005.83 1005.63 1005.84 1005.20 1004.62 1004.62 1004.76 1004.09 1003.60 1002.41 1002.37 1002.01 1001.76 1001.39 1000.82 1000.75 1001.04 1001.21 1001.76 1002.33 1002.85 1003.24 1003.62 1004.05 1004.40 1004.65 1005.06
1017.47 1016.65 1015.93 1015.47 1014.83 1014.05 1013.43 1012.76 1012.16 1011.89 1011.92 1012.23 1012.30 1012.35 1012.28 1011.87 1011.28 1010.75 1010.01 1009.46 1008.92 1007.73 1007.04 1006.33 1005.94 1005.70 1005.68 1005.45 1004.67 1004.53 1003.92 1003.67 1003.59 1003.10 1003.58 1004.05 1003.59 1002.57 1002.53 1002.30 1001.85 1001.83 1001.90 1002.28 1002.97 1003.22 1003.42 1003.84 1004.19 1004.45 1004.88 1005.23 1005.43 1005.63
1016.82 1016.14 1015.34 1014.73 1014.21 1013.57 1012.94 1012.14 1011.67 1011.62 1011.60 1011.61 1011.78 1011.89 1012.03 1011.30 1010.82 1010.55 1009.59 1008.59 1007.94 1006.91 1006.52 1006.23 1005.68 1005.09 1005.07 1004.82 1004.33 1003.96 1003.77 1003.59 1003.42 1003.95 1004.63 1004.72 1004.09 1004.02 1003.27 1002.86 1002.49 1003.16 1003.31 1003.68 1003.81 1004.02 1004.37 1004.83 1005.30 1005.70 1006.11 1006.27 1006.25 1006.26
1016.21 1015.51 1014.96 1014.29 1013.62 1012.70 1012.41 1011.74 1011.41 1011.49 1011.36 1011.39 1011.49 1011.89 1011.49 1011.14 1010.30 1009.09 1008.61 1007.94 1007.24 1006.69 1006.43 1006.08 1005.50 1005.12 1004.76 1004.52 1004.02 1003.70 1003.66 1004.24 1005.33 1005.81 1005.77 1005.87 1005.38 1004.61 1003.86 1003.49 1003.75 1003.96 1004.09 1004.46 1004.72 1004.97 1005.33 1005.69 1006.02 1006.47 1006.81 1006.98 1006.98 1007.09
1015.71 1014.80 1014.34 1014.08 1013.39 1012.47 1012.05 1011.47 1011.44 1011.36 1011.33 1011.60 1012.01 1012.16 1011.44 1010.61 1009.59 1008.45 1007.75 1007.35 1007.03 1006.50 1006.01 1005.59 1004.95 1004.60 1004.56 1004.71 1004.69 1005.26 1005.53 1006.81 1007.18 1006.97 1007.02 1006.92 1006.48 1005.52 1005.12 1005.08 1004.86 1004.77 1004.95 1005.28 1005.48 1005.72 1006.02 1006.31 1006.59 1006.97 1007.23 1007.42 1007.51 1007.54
1015.45 1014.97 1014.26 1013.87 1013.23 1012.20 1011.74 1011.42 1011.26 1011.65 1012.09 1012.46 1012.56 1012.43 1012.01 1011.30 1010.33 1009.33 1008.23 1006.91 1006.80 1006.07 1005.45 1005.05 1005.26 1005.93 1005.89 1006.13 1006.81 1007.33 1007.96 1007.83 1007.39 1007.33 1007.19 1007.11 1006.73 1006.66 1006.35 1005.95 1005.73 1005.80 1006.05 1006.35 1006.46 1006.67 1006.74 1006.87 1007.13 1007.26 1007.49 1007.91 1007.91 1007.89
1015.44 1014.73 1014.34 1013.82 1013.25 1012.61 1012.09 1012.03 1012.11 1012.49 1012.93 1013.16 1013.17 1012.28 1011.75 1011.29 1010.61 1009.55 1008.86 1007.79 1006.96 1006.42 1005.82 1006.11 1006.33 1006.73 1007.49 1008.17 1008.59 1008.64 1008.35 1008.07 1007.93 1007.67 1007.23 1006.93 1006.87 1006.79 1006.73 1006.34 1006.13 1006.43 1006.69 1006.81 1006.97 1007.15 1007.12 1007.28 1007.39 1007.54 1007.65 1007.80 1007.71 1007.80
1015.36 1014.85 1014.34 1013.73 1013.36 1013.26 1012.96 1013.25 1013.59 1013.67 1013.66 1013.55 1013.14 1012.56 1011.71 1011.01 1010.40 1009.87 1009.09 1008.11 1007.52 1007.30 1006.84 1007.07 1007.85 1008.54 1009.11 1009.30 1009.47 1009.23 1009.10 1008.89 1008.57 1008.16 1007.79 1007.42 1007.15 1007.00 1007.13 1007.00 1006.94 1007.05 1007.07 1007.15 1007.37 1007.43 1007.53 1007.66 1007.74 1007.76 1007.81 1007.85 1007.86 1007.96
1014.80 1014.50 1014.16 1013.65 1013.29 1013.35 1013.77 1014.34 1014.43 1014.27 1014.11 1013.90 1013.46 1012.65 1011.99 1011.29 1010.54 1009.66 1009.04 1008.82 1008.27 1007.91 1008.33 1008.94 1009.40 1009.83 1009.77 1009.69 1009.75 1009.37 1009.45 1009.22 1008.71 1008.25 1007.83 1007.58 1007.42 1007.25 1007.21 1007.29 1007.39 1007.63 1007.45 1007.51 1007.49 1007.51 1007.47 1007.48 1007.45 1007.61 1007.67 1007.97 1008.08 1008.03
1014.61 1014.41 1013.99 1013.77 1013.70 1013.81 1014.50 1014.93 1014.95 1015.07 1014.55 1014.01 1013.27 1012.85 1012.10 1011.16 1010.60 1010.07 1009.59 1009.22 1008.89 1009.43 1010.10 1010.49 1010.53 1010.61 1010.18 1009.81 1009.65 1009.40 1009.42 1009.28 1009.10 1008.93 1008.74 1008.05 1007.56 1007.55 1007.71 1007.69 1007.59 1007.57 1007.47 1007.46 1007.27 1007.25 1007.32 1007.27 1007.41 1007.57 1007.65 1007.60 1007.73 1007.97
1015.11 1014.82 1014.49 1014.24 1014.08 1014.34 1014.91 1015.52 1015.36 1015.16 1014.74 1013.88 1013.15 1012.83 1012.19 1011.62 1011.24 1010.77 1010.79 1010.08 1010.56 1010.97 1011.04 1010.89 1010.76 1010.78 1010.70 1009.87 1009.60 1009.35 1009.23 1008.95 1008.69 1008.39 1008.33 1008.23 1007.98 1007.90 1007.97 1008.15 1007.94 1007.79 1007.63 1007.59 1007.60 1007.38 1007.41 1007.40 1007.45 1007.50 1007.47 1007.47 1007.81 1007.56
1015.22 1015.11 1014.81 1014.51 1014.28 1014.46 1015.49 1015.41 1014.87 1014.53 1014.04 1013.63 1012.99 1012.76 1012.59 1012.15 1011.86 1011.48 1011.61 1011.94 1012.10 1012.11 1011.84 1011.33 1011.10 1010.85 1010.68 1010.44 1010.09 1009.70 1009.25 1009.02 1008.75 1008.65 1008.53 1008.39 1008.28 1008.41 1008.42 1008.38 1008.24 1008.13 1007.91 1007.72 1007.53 1007.39 1007.33 1007.54 1007.19 1006.97 1007.05 1006.99 1007.13 1007.02
1015.44 1015.31 1014.90 1014.75 1014.60 1014.78 1014.67 1014.43 1014.34 1013.97 1013.56 1013.38 1013.07 1012.87 1012.78 1012.71 1012.47 1012.26 1012.61 1013.04 1012.99 1012.37 1011.89 1011.77 1011.18 1010.95 1010.92 1010.70 1010.59 1010.49 1010.25 1009.80 1009.39 1009.19 1009.31 1009.17 1009.13 1009.14 1009.01 1008.93 1008.85 1008.69 1008.60 1008.17 1007.77 1007.63 1007.49 1007.25 1007.07 1006.73 1006.66 1006.73 1006.86 1006.98
1015.63 1015.73 1015.18 1014.91 1014.63 1014.27 1014.07 1013.83 1013.66 1013.42 1013.29 1013.20 1012.92 1012.91 1012.91 1012.95 1012.94 1013.19 1013.56 1013.85 1013.44 1012.97 1012.53 1011.95 1011.67 1011.57 1011.45 1011.40 1011.28 1011.21 1011.09 1010.59 1010.31 1010.08 1010.26 1009.86 1009.73 1009.68 1009.60 1009.28 1009.57 1009.54 1009.11 1008.32 1008.07 1007.78 1007.66 1007.46 1007.26 1007.06 1006.82 1006.99 1007.02 1007.15
1015.29 1015.31 1015.07 1014.73 1014.39 1014.11 1013.85 1013.59 1013.46 1013.37 1013.18 1012.91 1013.06 1013.18 1013.11 1013.08 1013.53 1014.27 1014.57 1014.80 1014.48 1014.27 1013.86 1013.35 1012.81 1012.43 1012.30 1012.39 1012.09 1011.91 1011.79 1011.43 1010.97 1010.83 1011.30 1011.03 1010.70 1010.43 1010.40 1010.36 1010.20 1010.10 1010.00 1009.53 1009.13 1008.62 1008.21 1008.15 1007.96 1007.65 1007.45 1007.37 1007.42 1007.37
1015.37 1015.05 1014.77 1014.64 1014.55 1014.40 1013.99 1014.00 1013.87 1013.83 1013.87 1013.92 1013.91 1013.59 1013.52 1013.96 1014.69 1015.36 1015.55 1015.68 1015.38 1015.29 1014.90 1014.26 1013.77 1013.48 1013.42 1013.29 1013.03 1012.85 1012.51 1012.13 1011.95 1012.17 1012.25 1012.13 1012.05 1011.92 1011.69 1011.58 1011.43 1011.53 1010.93 1010.24 1009.73 1009.30 1008.97 1008.61 1008.35 1008.08 1007.89 1007.67 1007.43 1007.30
1015.19 1015.03 1014.77 1014.49 1014.37 1014.61 1014.45 1014.56 1014.83 1015.06 1015.19 1015.14 1014.73 1014.35 1014.55 1015.11 1016.25 1016.93 1016.84 1016.60 1016.11 1015.65 1015.09 1014.76 1014.61 1014.46 1014.24 1014.07 1013.92 1013.60 1013.15 1012.69 1012.33 1012.22 1012.19 1012.18 1012.42 1012.61 1012.58 1012.34 1012.21 1011.96 1011.54 1011.25 1010.91 1010.24 1009.99 1009.54 1009.14 1008.80 1008.52 1008.23 1008.11 1008.03
1014.80 1014.83 1014.78 1014.63 1014.63 1014.85 1015.32 1015.49 1015.63 1015.86 1016.05 1015.69 1015.39 1015.37 1015.93 1016.73 1017.60 1017.80 1017.52 1017.08 1016.65 1016.05 1015.49 1015.20 1015.22 1014.98 1014.82 1014.57 1014.56 1014.49 1014.24 1013.87 1013.25 1012.91 1012.82 1012.71 1012.64 1012.92 1013.19 1012.91 1012.62 1012.39 1012.10 1011.70 1011.51 1011.49 1011.23 1010.69 1010.44 1010.00 1009.48 1009.11 1008.94 1008.66
1014.68 1014.81 1014.59 1014.77 1014.97 1015.35 1015.84 1016.04 1016.43 1016.80 1016.76 1016.50 1016.49 1017.04 1017.60 1018.12 1018.58 1018.44 1017.79 1017.37 1016.86 1016.47 1016.26 1016.15 1016.13 1015.88 1015.67 1015.42 1015.16 1014.94 1015.07 1015.05 1014.85 1014.64 1014.24 1013.98 1014.03 1014.09 1013.87 1013.60 1013.36 1013.12 1012.86 1012.51 1012.11 1011.77 1011.55 1011.05 1010.71 1010.33 1010.14 1009.75 1009.69 1009.41
1014.71 1014.53 1014.56 1014.75 1015.09 1015.66 1015.99 1016.30 1016.53 1016.73 1017.10 1017.51 1017.61 1017.86 1018.05 1018.28 1018.49 1018.45 1018.09 1017.77 1017.53 1017.20 1016.86 1016.65 1016.49 1016.72 1016.57 1016.46 1016.29 1015.93 1015.69 1015.67 1015.71 1015.54 1015.43 1014.97 1014.84 1014.76 1014.60 1014.37 1014.07 1013.79 1013.50 1013.18 1012.84 1012.55 1012.31 1011.82 1011.55 1011.23 1010.97 1010.85 1010.75 1010.53
1014.30 1014.27 1014.42 1014.53 1015.05 1015.69 1016.03 1016.09 1016.20 1016.52 1016.99 1017.21 1017.42 1017.63 1017.69 1017.77 1018.09 1018.32 1018.44 1018.03 1017.65 1017.45 1017.68 1017.42 1017.23 1017.30 1017.45 1017.33 1017.23 1017.06 1017.26 1016.68 1016.38 1016.17 1015.93 1015.70 1015.66 1015.63 1015.35 1015.06 1014.77 1014.50 1014.17 1013.80 1013.51 1013.26 1013.04 1012.75 1012.45 1012.19 1011.87 1011.59 1011.46 1011.40
1014.01 1014.15 1014.37 1014.55 1014.81 1015.08 1015.44 1015.64 1015.75 1015.98 1016.43 1016.69 1016.98 1017.18 1017.24 1017.35 1017.45 1018.19 1018.67 1018.68 1018.61 1018.43 1018.26 1018.11 1018.00 1018.05 1017.97 1017.80 1017.69 1017.46 1017.27 1017.11 1017.24 1017.09 1016.97 1016.87 1016.74 1016.47 1015.98 1015.68 1015.41 1015.09 1014.73 1014.42 1014.17 1013.95 1013.73 1013.55 1013.26 1013.05 1012.77 1012.51 1012.27 1012.06
Wind_Speed
18 19 19 20 21 22 22 21 20 20 20 20 18 17 16 14 11 5 3 5 4 4 7 13 16 12 9 7 7 6 9 2 3 5 4 4 6 11 10 12 11 14 13 10 13 14 19 7 8 11 1 1 2 4
19 19 20 21 22 22 22 22 21 20 18 18 18 17 17 16 12 5 3 4 5 5 6 7 11 16 19 22 13 8 8 6 3 4 3 5 4 3 5 15 5 13 11 12 12 8 2 7 3 1 2 5 2 4
20 20 20 21 21 22 23 23 22 19 15 17 14 12 17 11 11 8 4 3 2 4 10 12 14 21 20 23 18 11 8 8 4 4 4 4 7 3 4 8 9 7 4 7 8 7 5 3 3 5 5 4 8 14
20 20 20 20 21 22 23 23 22 12 11 16 10 7 4 6 9 8 4 4 3 3 5 8 8 14 11 15 21 22 18 6 2 4 3 5 5 3 4 7 6 3 2 7 5 3 7 2 2 7 12 18 20 21
19 19 19 20 20 21 22 22 21 11 9 11 9 3 3 4 4 3 4 6 8 4 4 9 19 15 15 19 18 21 20 17 5 2 4 4 4 5 4 5 9 5 4 7 5 15 4 7 10 14 19 22 25 26
19 19 19 19 19 19 19 20 19 14 10 8 8 6 6 6 3 2 3 4 9 7 3 5 4 9 6 9 19 16 14 9 6 4 6 5 4 3 4 5 2 5 7 6 4 9 10 17 15 16 20 20 24 24
19 19 19 19 19 19 18 19 17 16 12 8 9 8 7 4 3 4 2 2 6 4 2 4 5 3 5 10 9 8 11 5 4 3 6 4 3 3 4 6 6 8 7 5 8 20 20 16 14 17 19 20 19 19
19 19 19 19 19 18 16 17 17 15 13 12 9 8 9 5 5 6 6 13 8 1 3 4 4 3 6 5 5 5 6 3 5 3 3 4 2 4 7 10 9 2 10 13 12 10 16 22 20 19 19 18 19 16
18 19 19 19 18 17 17 17 17 18 16 12 10 4 1 3 3 2 2 4 6 3 3 3 2 1 4 5 3 4 4 5 3 4 3 1 2 7 7 9 2 1 7 18 21 21 20 20 19 16 15 15 16 12
18 19 20 20 20 18 17 18 18 18 14 6 2 2 3 4 4 2 4 3 4 4 4 4 3 5 4 8 6 3 3 4 3 4 2 5 4 7 5 4 6 12 12 14 22 18 18 16 15 13 13 11 12 11
20 20 20 21 21 19 17 16 17 16 1 1 2 3 2 6 2 2 3 4 3 4 4 4 6 4 2 3 2 3 3 4 4 4 2 3 2 4 9 5 3 6 8 12 13 14 15 16 14 14 14 12 12 10
20 20 21 22 21 18 16 19 16 3 3 2 0 1 2 2 2 3 3 2 5 3 3 2 1 4 2 2 3 4 4 4 3 3 3 1 2 5 3 4 6 9 13 15 16 15 16 15 13 13 12 11 11 10
21 22 22 21 20 16 22 20 17 9 5 1 2 2 2 1 2 2 4 2 3 3 3 3 2 2 2 3 2 3 3 1 3 0 4 5 9 10 4 8 12 13 16 17 15 16 16 16 15 13 11 9 8 8
21 22 23 23 11 20 20 19 14 4 1 1 2 3 3 3 3 3 6 6 4 4 4 5 3 2 1 3 2 3 2 2 6 6 5 5 8 7 10 11 14 15 16 16 15 14 14 13 12 11 9 7 6 7
22 22 22 8 22 23 22 17 3 2 1 3 3 7 4 6 8 8 6 5 4 5 5 3 2 2 1 2 1 2 1 6 6 4 3 6 10 10 12 13 11 11 12 11 11 11 11 10 9 9 8 6 6 5
21 19 3 17 23 25 21 6 1 1 2 3 5 5 8 5 7 8 10 6 5 6 3 3 2 0 5 4 6 9 5 6 6 4 3 4 6 9 10 9 8 10 11 10 9 10 10 9 9 8 8 7 6 6
16 3 12 21 24 23 9 2 1 5 4 4 3 2 5 6 7 9 9 8 9 4 4 3 7 6 3 5 6 5 3 4 6 4 1 1 5 6 5 7 9 9 9 8 9 9 9 8 7 7 8 5 5 5
3 7 18 21 16 6 4 6 3 4 4 2 4 7 7 4 8 7 8 9 7 6 4 5 2 8 6 5 3 4 3 3 2 3 5 8 5 4 3 6 8 7 7 7 8 7 7 8 8 6 6 5 4 5
10 13 15 16 7 3 4 5 4 3 2 3 5 5 5 5 4 6 6 6 3 2 2 4 6 4 3 1 3 3 4 3 3 3 4 5 4 2 3 4 5 6 7 7 5 4 4 4 4 2 3 3 4 4
8 8 12 8 5 2 3 4 2 2 4 3 4 7 6 4 8 5 5 5 5 4 7 6 5 3 3 2 2 3 3 5 4 5 7 7 5 5 6 4 5 6 6 6 5 1 2 1 1 0 1 0 0 2
5 5 9 5 2 4 4 3 3 2 4 4 3 5 5 4 4 6 7 7 4 4 4 3 3 4 5 4 1 3 1 4 4 2 2 4 6 6 6 5 5 3 4 2 3 2 1 3 3 2 2 2 2 2
3 8 3 3 3 3 4 2 2 2 3 4 5 5 4 6 6 6 7 6 6 4 4 4 3 2 2 4 6 8 8 9 6 3 3 2 3 4 5 4 3 2 2 2 1 1 2 2 2 1 1 2 4 3
5 4 2 3 2 4 1 1 2 4 4 6 4 4 4 5 6 6 4 4 4 4 5 4 5 4 2 3 3 7 7 7 5 6 6 7 5 5 4 4 4 3 3 2 2 2 2 2 1 2 1 3 3 1
1 3 5 4 4 2 2 2 1 2 1 2 3 4 4 4 6 4 4 3 4 4 7 9 5 4 4 8 9 8 8 6 5 6 7 5 6 5 5 6 6 6 4 3 3 3 3 4 4 3 3 3 1 4
4 6 3 6 1 3 3 2 2 1 1 2 2 2 3 3 4 5 5 5 6 7 7 8 9 8 9 9 9 9 9 8 7 9 9 6 4 2 4 7 8 9 9 8 8 8 8 8 7 8 7 4 4 4
6 4 5 5 2 3 3 3 4 4 3 1 3 2 1 1 4 4 3 5 6 8 8 8 8 8 9 9 8 9 8 6 4 9 8 9 9 8 8 8 8 10 10 9 9 9 9 9 8 9 8 8 4 6
5 5 3 1 2 3 3 2 2 3 5 6 4 3 1 3 2 3 3 6 4 4 5 6 8 8 8 8 7 7 7 6 8 7 6 8 9 9 8 9 10 8 9 11 9 10 10 10 10 10 9 8 7 6
2 3 6 8 3 4 4 4 4 4 4 4 6 2 2 3 4 3 3 4 4 4 6 8 8 7 7 7 7 8 8 8 6 5 1 6 6 9 10 8 8 10 8 9 10 10 9 9 9 9 9 7 6 6
1 2 2 5 4 4 4 4 4 3 4 3 2 3 4 4 4 3 4 5 4 6 8 9 9 8 8 6 7 8 8 9 11 13 13 9 9 9 9 8 9 9 9 10 9 10 12 9 9 9 8 7 8 7
2 2 2 3 3 3 3 4 4 4 6 7 5 6 5 4 4 4 4 5 6 7 7 7 7 8 9 9 9 8 7 8 8 8 9 9 8 7 7 8 9 9 9 10 10 10 10 9 9 8 9 8 8 7
1 1 1 1 3 2 2 4 2 3 4 6 6 7 4 4 2 2 4 4 4 6 7 8 7 8 8 8 8 8 8 7 9 9 8 6 5 6 7 7 8 8 9 10 9 9 11 9 9 10 10 10 11 10
1 1 2 2 3 4 4 3 3 2 3 3 3 3 3 3 2 2 5 4 5 7 7 7 7 7 7 6 6 5 4 6 7 8 9 6 6 7 7 7 8 8 9 9 9 9 11 11 10 10 9 10 10 10
2 0 1 1 2 4 3 4 3 4 4 3 2 2 0 1 2 3 3 5 5 5 7 6 4 6 7 7 8 7 7 6 7 7 9 8 8 8 7 7 7 8 9 8 8 9 10 12 10 11 11 11 11 10
Wind_Direction
333 330 328 324 322 322 317 310 307 305 297 289 285 280 277 272 267 181 251 204 217 250 258 247 242 252 261 254 261 310 319 189 274 247 260 212 229 224 246 229 176 176 180 192 216 222 233 160 130 192 268 340 303 252
331 328 326 325 324 324 324 321 318 310 306 297 281 265 266 267 255 219 237 216 216 237 263 265 270 260 252 251 265 251 254 320 297 292 261 294 248 250 254 240 214 218 208 194 206 206 114 182 280 304 233 263 252 157
327 328 327 326 325 323 323 323 321 306 305 315 308 299 280 237 234 225 210 200 213 264 274 247 244 249 243 236 223 237 252 223 233 51 315 291 273 271 247 225 261 218 206 222 169 170 187 229 252 266 210 188 127 116
327 327 324 323 324 325 325 329 335 318 317 336 322 314 8 183 227 177 202 198 221 278 272 278 253 248 230 224 219 224 229 253 67 22 314 272 275 263 274 314 279 320 231 183 192 121 125 177 174 146 138 131 115 116
322 320 321 325 327 328 332 339 340 332 315 332 341 304 262 259 265 245 223 212 221 214 288 292 295 273 249 228 210 207 217 230 246 278 262 255 274 285 272 269 244 203 191 207 191 182 129 141 157 158 145 133 127 125
319 320 324 325 322 321 332 342 346 350 333 317 327 329 282 267 157 199 256 187 214 202 267 290 305 283 276 203 201 200 202 199 194 187 219 238 250 265 289 268 241 279 260 250 332 152 118 127 147 146 139 135 121 114
318 319 319 317 320 323 335 331 329 334 339 317 307 303 292 220 182 223 272 22 165 162 224 266 266 226 55 138 163 174 171 181 176 216 227 245 226 233 253 259 338 313 275 210 184 130 115 127 132 132 115 108 106 105
319 319 318 316 315 316 315 308 310 312 315 314 313 307 284 231 226 267 246 207 157 222 264 264 269 252 191 144 136 156 157 182 207 217 254 233 196 230 255 274 300 306 125 132 142 116 111 120 116 109 110 112 107 112
323 324 325 319 314 312 310 306 310 315 315 299 289 317 144 206 231 243 322 194 189 221 274 241 270 282 174 187 131 191 158 178 197 208 240 223 227 230 273 295 29 53 125 127 109 103 104 96 102 104 105 105 108 110
323 324 326 325 320 313 305 304 312 315 310 308 135 187 239 205 254 254 183 179 178 205 204 246 202 252 248 184 179 141 157 218 198 211 198 217 236 276 295 271 150 120 125 122 104 98 97 98 107 107 105 113 120 124
320 322 324 324 324 320 307 305 313 317 49 203 193 226 300 308 226 203 229 212 197 245 208 226 206 252 202 237 116 146 240 185 196 204 232 239 219 354 341 97 63 64 80 86 91 97 101 107 108 104 94 90 88 83
317 319 322 324 326 319 312 319 321 294 227 138 260 310 294 276 222 260 238 222 220 261 258 248 358 221 225 216 166 179 235 196 189 181 213 232 336 15 63 81 71 77 83 83 84 87 86 87 94 95 92 87 85 85
316 317 319 322 324 312 324 324 327 298 229 159 174 155 358 350 311 293 315 270 255 225 243 286 211 219 195 229 267 222 232 330 171 97 76 53 358 354 70 120 93 93 88 85 91 89 83 77 67 67 71 61 64 63
312 314 317 320 321 325 326 329 332 137 203 10 6 21 18 345 317 276 280 286 245 262 310 322 302 303 19 215 257 359 337 176 11 39 52 24 6 17 56 80 93 94 94 94 90 86 83 82 78 69 62 49 47 48
310 313 316 302 332 327 335 333 347 192 306 9 353 10 353 333 291 284 290 287 318 308 315 272 245 264 251 281 266 343 359 55 42 40 45 6 344 15 41 54 74 86 88 85 83 81 79 79 79 74 59 57 59 57
315 315 254 339 332 326 333 346 172 224 58 25 33 328 312 302 319 337 343 334 4 317 237 222 253 17 33 18 23 10 37 29 6 352 344 323 348 23 31 52 70 78 78 75 70 71 71 69 72 79 76 62 62 59
318 259 330 329 326 321 339 10 7 45 41 20 332 273 297 277 292 325 324 320 338 314 19 360 32 15 321 33 30 22 20 310 319 320 286 356 10 1 15 67 79 85 88 86 88 81 78 76 84 82 72 64 70 66
257 306 320 321 328 314 358 19 52 47 28 0 327 328 319 287 306 337 337 329 347 1 360 49 358 26 42 28 18 343 318 336 331 329 349 347 1 345 356 57 79 84 90 89 94 85 81 72 69 63 54 40 57 51
293 304 310 317 335 350 25 38 15 38 319 307 292 310 314 307 292 307 321 348 332 317 23 26 54 30 40 349 13 353 20 13 355 339 357 3 8 34 52 78 91 107 111 110 121 91 79 64 64 69 65 39 48 41
307 301 328 337 343 49 71 47 22 10 354 315 310 340 315 315 317 314 343 12 5 26 37 31 37 34 2 351 342 4 9 354 351 34 39 34 40 71 82 98 96 104 102 109 112 117 97 100 114 54 339 15 342 73
334 340 340 355 49 51 67 15 69 4 319 326 337 334 304 308 344 350 354 345 33 41 45 47 40 15 11 22 199 219 319 13 6 355 316 4 31 73 90 93 102 103 90 76 63 69 333 349 355 339 295 262 211 209
333 341 342 354 57 60 83 23 350 327 300 307 332 344 352 359 345 2 324 15 26 6 4 341 355 11 82 309 334 336 331 342 9 29 23 26 29 55 54 32 22 65 110 73 325 316 291 276 275 237 228 208 215 211
324 352 356 5 84 47 33 237 352 9 5 349 346 21 8 2 358 329 41 26 13 352 324 325 345 352 43 353 352 4 4 5 38 33 23 17 29 31 29 26 17 3 335 3 352 349 339 322 234 282 245 188 199 217
334 22 29 27 35 44 295 35 20 334 299 12 2 22 12 346 335 25 51 31 330 352 32 23 20 58 71 44 34 21 10 14 54 41 21 16 24 28 43 39 30 25 358 343 11 30 20 357 341 317 315 315 19 326
30 3 30 1 65 353 14 348 359 11 359 15 14 45 17 342 27 45 35 358 349 16 30 52 53 50 51 46 44 42 36 30 39 54 22 19 62 61 33 60 48 35 17 23 32 35 30 22 22 15 7 341 305 292
61 358 41 348 345 353 359 329 353 356 311 45 48 8 332 77 60 50 40 352 14 10 10 17 29 34 38 30 26 16 2 360 57 67 45 33 34 43 47 39 24 26 10 9 5 8 22 10 360 5 4 355 354 315
32 1 4 92 324 306 308 338 9 9 15 11 2 330 54 78 87 68 14 19 31 351 347 21 34 40 30 21 18 17 20 32 57 72 73 57 48 40 36 28 19 359 337 351 355 357 350 345 343 343 338 332 339 335
37 7 341 341 18 11 21 37 35 19 344 342 306 313 79 36 58 33 349 350 329 337 45 46 38 31 27 23 18 12 14 7 46 46 148 58 55 40 21 16 13 344 356 14 3 3 357 0 0 359 356 355 1 4
5 2 310 12 31 48 38 16 20 10 335 272 298 8 52 50 29 16 326 325 308 25 41 34 25 16 19 22 31 26 20 14 17 22 18 9 5 17 7 9 12 12 7 3 27 30 10 7 6 0 357 4 6 2
34 345 9 46 45 44 40 17 70 44 36 42 41 52 56 44 12 337 348 11 25 30 30 30 20 14 15 11 9 19 41 26 21 11 358 358 359 356 5 13 15 13 8 5 3 360 2 357 5 6 9 7 11 360
325 284 133 91 98 102 104 121 134 112 82 73 91 111 146 178 198 309 351 8 21 30 27 17 25 27 18 16 9 360 357 10 355 353 358 352 8 23 19 16 10 6 2 360 358 3 1 360 4 1 9 11 16 14
291 311 320 156 139 138 158 185 141 114 145 183 172 189 211 188 148 81 8 359 26 27 18 4 14 18 10 5 7 5 330 334 343 352 9 27 34 20 10 7 2 356 355 358 3 7 6 6 3 360 354 356 2 6
263 229 119 148 160 181 164 176 167 157 163 195 153 155 88 277 40 103 104 42 37 19 10 7 11 12 357 354 6 356 355 22 60 42 38 37 29 8 355 355 356 358 359 1 1 0 5 5 5 2 359 355 352 350